sat.trackr.live / text

‹ back to catalog

BSAT-2A

NORAD 26720 · 2001-011B

PAYLOAD ACTIVE UNKNOWN

§ Identity

Operator
Country
JPN
Launch date
2001-03-08
Launch site
FRGUI
Launch vehicle
Mass (kg)
RCS (m²)
15.89

External: N2YO · Heavens-Above · Gunter

§ Orbital elements

Epoch: 2026-05-24T22:38:25.489248Z

Period
1,451.90 min
Inclination
10.6852°
Eccentricity
0.0002391
Mean motion
0.99180694 rev/d
Perigee alt
36,085.1 km
Apogee alt
36,105.4 km
Semi-major
42,473.4 km
B*
0.0000e+0
RAAN
47.7041°
Arg perigee
220.3083°
Mean anomaly
320.7695°
Rev number
9,174

§ Raw data

BSAT-2A1 26720U 01011B   26144.94335057 -.00000139  00000+0  00000+0 0  99952 26720  10.6852  47.7041 0002391 220.3083 320.7695  0.99180694 91746

JSON: /api/v1/satellites/26720 · /tle

For live sub-satellite position, see the globe view (requires WebGL).

§ Visibility from observer

Set your observer location to see the next 7 days of passes ≥ 10°. The values pass through the URL so the page stays shareable.

No JS? Fill the form by hand. The geolocation button needs JavaScript.